Other Public Products
Issued by NWS Charleston, SC

Current Version | Previous Version | Graphics & Text | Print | Product List | Glossary On
Versions: 1 2 3 4 5 6 7 8 9 10 11 12 13 14 15 16 17 18 19 20 21 22 23 24 25 26 27 28 29 30 31 32 33 34 35 36 37 38 39 40 41 42 43 44 45 46 47 48 49 50
000
FPUS82 KCHS 170012
OPUCHS

TEST...KCHS/KSAV Gateway Observations...TEST
National Weather Service Charleston SC
800 PM EDT MON OCT 16 2017

NOTE: "fair" indicates few or no clouds below 12,000 feet with no
significant weather and/or obstructions to visibility.

SCZ050-WAZ558-NCZ071-TXZ119-213-PAZ071-DCZ001-FLZ074-172-MI076-
NYZ176-178-MAZ016-IL014-TNZ027-NJZ106-GAZ044-MD014-170100-

...Gateway Observations for Charleston International...

CITY           SKY/WX    TMP DP  RH WIND       PRES   REMARKS
Chas Airport   CLOUDY    63  58  83 N20G31    30.06R
6HR MIN TEMP:  63; 6HR MAX TEMP:  86; 6HR PCP:  0.05;

Seattle        PTSUNNY   59  47  64 SW10      30.16S
6HR MIN TEMP:  54; 6HR MAX TEMP:  62;

Charlotte      PTCLDY    59  42  53 N10       30.18R
6HR MIN TEMP:  59; 6HR MAX TEMP:  69;

Dallas DFW     CLEAR     68  39  34 N5        30.25S
6HR MIN TEMP:  67; 6HR MAX TEMP:  74;

Dallas Love    CLEAR     70  37  29 NE6       30.26S
6HR MIN TEMP:  68; 6HR MAX TEMP:  75;

Philladelphia  PTCLDY    54  36  50 N7        30.16R
6HR MIN TEMP:  54; 6HR MAX TEMP:  60;

Wash National  PTCLDY    59  36  42 NW9       30.19R
6HR MIN TEMP:  59; 6HR MAX TEMP:  66;

Baltimore      PTCLDY    55  38  52 NW9       30.17R
6HR MIN TEMP:  54; 6HR MAX TEMP:  64;

Miami          MOCLDY    82  76  81 E8        29.92R
6HR MIN TEMP:  78; 6HR MAX TEMP:  89; 6HR PCP:  0.79;

Detroit        MOCLDY    51  38  60 S6        30.27S
6HR MIN TEMP:  51; 6HR MAX TEMP:  58;

Newark         MOCLDY    54  33  45 NW17G24   30.15R
6HR MIN TEMP:  54; 6HR MAX TEMP:  60;

Laguardia      MOCLDY    55  37  50 NW15G25   30.13R
6HR MIN TEMP:  55; 6HR MAX TEMP:  59;

J F K          CLOUDY    55  35  47 NW18G29   30.14R
6HR MIN TEMP:  55; 6HR MAX TEMP:  61;

Boston Logan   CLOUDY    50  35  56 NW14G22   30.07R
6HR MIN TEMP:  50; 6HR MAX TEMP:  55;

Ft. Lauderdale PTCLDY    81  75  82 E8        29.92R
6HR MIN TEMP:  81; 6HR MAX TEMP:  86; 6HR PCP: TRACE;

Chicago O`Hare CLEAR     57  36  45 SW5       30.21S
6HR MIN TEMP:  57; 6HR MAX TEMP:  63;

Chicago Midway CLEAR     58  36  43 SW7       30.22S
6HR MIN TEMP:  58; 6HR MAX TEMP:  63;

Houston Bush   PTCLDY    70  47  43 NE7       30.19R
6HR MIN TEMP:  70; 6HR MAX TEMP:  78;

Houston Hobby  PTCLDY    73  45  36 N12       30.18R
6HR MIN TEMP:  73; 6HR MAX TEMP:  79;

Nashville      CLEAR     57  41  55 N8        30.29R
6HR MIN TEMP:  57; 6HR MAX TEMP:  67;

Atlanta        PTCLDY    60  45  57 N16       30.13R
6HR MIN TEMP:  60; 6HR MAX TEMP:  69;


$$

GAZ044-118-TXZ119-213-NCZ071-DCZ001-MDZ014-506-PAZ021-071-NJZ106-
NYZ176-178-MAZ106-OHZ011-021-055-MIZ076-KYZ091-ILZ014-INZ047-
MNZ060-ONZ431-170100-

...Gateway Observations for Savannah International...

CITY           SKY/WX    TMP DP  RH WIND       PRES   REMARKS
Savannah Arpt  CLOUDY    72  68  87 NE17G26   30.02R
6HR MIN TEMP:  72; 6HR MAX TEMP:  88; 6HR PCP:  0.28;

Atlanta        PTCLDY    60  45  57 N16       30.13R
6HR MIN TEMP:  60; 6HR MAX TEMP:  69;

Charlotte      PTCLDY    59  42  53 N10       30.18R
6HR MIN TEMP:  59; 6HR MAX TEMP:  69;

Dallas DFW     CLEAR     68  39  34 N5        30.25S
6HR MIN TEMP:  67; 6HR MAX TEMP:  74;

Houston Bush   PTCLDY    70  47  43 NE7       30.19R
6HR MIN TEMP:  70; 6HR MAX TEMP:  78;

Wash National  PTCLDY    59  36  42 NW9       30.19R
6HR MIN TEMP:  59; 6HR MAX TEMP:  66;

Wash Dulles    CLEAR     55  36  48 NW7       30.19R
6HR MIN TEMP:  55; 6HR MAX TEMP:  65;

Baltimore      PTCLDY    55  38  52 NW9       30.17R
6HR MIN TEMP:  54; 6HR MAX TEMP:  64;

Philadelphia   PTCLDY    54  36  50 N7        30.16R
6HR MIN TEMP:  54; 6HR MAX TEMP:  60;

Newark         MOCLDY    54  33  45 NW17G24   30.15R
6HR MIN TEMP:  54; 6HR MAX TEMP:  60;

Laguardia      MOCLDY    55  37  50 NW15G25   30.13R
6HR MIN TEMP:  55; 6HR MAX TEMP:  59;

J F K          CLOUDY    55  35  47 NW18G29   30.14R
6HR MIN TEMP:  55; 6HR MAX TEMP:  61;

Boston         CLOUDY    50  35  56 NW14G22   30.07R
6HR MIN TEMP:  50; 6HR MAX TEMP:  55;

Pittsburg      CLEAR     51  34  52 N7        30.26R
6HR MIN TEMP:  51; 6HR MAX TEMP:  59;

Akron          PTCLDY    47  31  53 N5        30.28R
6HR MIN TEMP:  45; 6HR MAX TEMP:  59;

Cleveland      PTCLDY    48  35  60 SW3       30.30S
6HR MIN TEMP:  48; 6HR MAX TEMP:  57;

Cincinnati     CLEAR     52  40  63 NW3       30.29R
6HR MIN TEMP:  51; 6HR MAX TEMP:  62;

Columbus       CLEAR     52  37  56 CALM      30.28S
Detroit        MOCLDY    51  38  60 S6        30.27S
6HR MIN TEMP:  51; 6HR MAX TEMP:  58;

Chicago O`Hare CLEAR     57  36  45 SW5       30.21S
6HR MIN TEMP:  57; 6HR MAX TEMP:  63;

Minneapolis    PTCLDY    62  38  40 S7        30.00F
6HR MIN TEMP:  58; 6HR MAX TEMP:  66;

Indianapolis   CLEAR     54  36  50 W6        30.30R
6HR MIN TEMP:  54; 6HR MAX TEMP:  62;

Toronto Canada CLEAR     43  28  56 NE6       30.25S

$$




USA.gov is the U.S. government's official web portal to all federal, state and local government web resources and services.